Location: Lac Lasalle
(46.0398°N, 74.1576°W)
Time: 06:30:38
(UTC-05:00)

AO-73 - Pass Details

Date: 13 December 2019
Orbit: 581 x 664 km, 97.6° (Epoch: 17 January)

Event Time Altitude Azimuth Distance (km) Brightness Sun altitude
Rises 05:29:16 0° 25° (NNE) 2,852 ? -20.0°
Reaches altitude 10° 05:31:52 10° 41° (NE) 1,932 ? -19.6°
Maximum altitude 05:35:09 22° 93° (E) 1,304 ? -19.0°
Drops below altitude 10° 05:38:22 10° 145° (SE) 1,899 ? -18.5°
Sets 05:40:53 0° 160° (SSE) 2,789 ? -18.1°
